Location: *
(46.3500°N, 10.9000°E)
Time: 12:51:22
(UTC+00:00)

CZ-2C R/B - Pass Details

Date: 09 April 2020
Orbit: 785 x 870 km, 98.3° (Epoch: 28 May)

Event Time Altitude Azimuth Distance (km) Brightness Sun altitude
Rises 19:16:43 0° 17° (NNE) 3,288 5.9 -13.8°
Reaches altitude 10° 19:19:06 10° 22° (NNE) 2,355 5.1 -14.2°
Maximum altitude 19:24:10 54° 100° (E) 955 2.6 -14.9°
Drops below altitude 10° 19:29:16 10° 178° (S) 2,362 4.7 -15.7°
Sets 19:31:39 0° 182° (S) 3,297 5.5 -16.1°
